Regional Weather Roundup
Issued by NWS

Home | Current Version | Previous Version | Text Only | Print | Product List | Glossary On
Versions: 1 2 3 4 5 6 7 8 9 10 11 12 13 14 15 16 17 18 19 20 21 22 23 24 25 26 27 28 29 30 31 32 33 34 35 36 37 38 39 40 41 42 43 44 45 46 47 48 49 50
000
ASUS46 KLOX 300312
RWRCA

SOUTHERN CALIFORNIA WEATHER ROUNDUP
NATIONAL WEATHER SERVICE OXNARD CALIFORNIA
800 PM PDT TUE JUL 29 2014

NOTE: "FAIR" INDICATES FEW OR NO CLOUDS BELOW 12,000 FEET WITH NO
SIGNIFICANT WEATHER AND/OR OBSTRUCTIONS TO VISIBILITY.

  -  STATIONS PRECEEDED BY AN ASTERISK (*) ARE NOT NWS OR FAA
     STATIONS AND ARE NOT SUBJECT TO NWS AND FAA QUALITY CONTROL.

CAZ041-042-087-300400-
LA AND ORANGE COUNTY COASTAL AREAS


CITY           SKY/WX    TMP DP  RH WIND       PRES   REMARKS
L.A. DOWNTOWN  PTCLDY    74  59  59 CALM      29.95R
L.A. AIRPORT   PTCLDY    71  63  75 SW8       29.96R
LONG BEACH     PTCLDY    75  59  57 NW6       29.95R

CITY           SKY/WX    TMP DP  RH WIND       PRES   REMARKS
AVALON           N/A     72 N/A N/A MISG        N/A
FULLERTON      PTCLDY    80  51  36 VRB3      29.94R
*GETTY CENTER    N/A     68  61  77 S2          N/A
HAWTHORNE      PTCLDY    72  63  73 W8        29.96R
*LEO CARRILLO    N/A     69  59  69 W7G20       N/A
*LOS ALAMITOS  FAIR      74  64  71 S6        29.95R
*REDONDO BEACH   N/A     70  64  80 SW1       29.94S
SANTA ANA      MOCLDY    75  63  66 S7        29.95R
STA MONICA APT PTCLDY    70  60  70 SW7       29.96R
TORRANCE       PTCLDY    79  54  41 NW9       29.95R
*UCLA            N/A     68  59  73 SW8       29.94R

$$

CAZ547-548-048-300400-
LA COUNTY VALLEYS AND INLAND EMPIRE


CITY           SKY/WX    TMP DP  RH WIND       PRES   REMARKS
BURBANK        PTCLDY    81  52  36 SE6       29.96R
VAN NUYS       PTCLDY    84  51  31 W3        29.95R

CITY           SKY/WX    TMP DP  RH WIND       PRES   REMARKS
CORONA AIRPORT CLEAR     81  54  39 W8        29.95R
*CHATSWORTH      N/A     81  55  41 NW6       29.91R
CHINO          MOCLDY    79  54  41 NW9       29.97R
MARCH AFB      PTCLDY    83  53  35 NW8       29.99R
*NORTHRIDGE      N/A     82  48  30 SW3         N/A
ONTARIO        MOCLDY    81  51  35 SW8       29.97R
*PASADENA        N/A     79  52  38 CALM        N/A
POMONA         CLEAR     81  50  34 W12       30.00R
RIVERSIDE      CLEAR     83  53  35 W6        29.96R
SAN BERNARDINO MOCLDY    73  45  35 SW8       29.98R
*SAN RAFAEL HI   N/A     79  50  35 E5          N/A
*SAUGUS          N/A     80  51  36 SW5         N/A
*WHITEMAN AP   MOCLDY    82  54  36 E5        29.99R
*WOODLAND HILL   N/A     82  50  32 NW2         N/A

$$

CAZ054-055-300400-
LA AND SAN BERNARDINO COUNTY MOUNTAINS


CITY           SKY/WX    TMP DP  RH WIND       PRES   REMARKS
*ACTON           N/A     91  44  19 SW7G20      N/A
*BIG BEAR AIRP PTCLDY    66  45  45 CALM      30.35R
*BIG PINES       N/A     69  42  37 CALM        N/A
*CHILAO          N/A     74  48  39 SW7         N/A
MT WILSON NWS    N/A     73  45  35 MISG        N/A
SANDBERG       MOCLDY    80  44  27 N10       30.20R
*WARM SPRINGS    N/A     79  45  29 W10         N/A

$$

CAZ028-029-059-060-099-300400-
ANTELOPE VALLEY AND SURROUNDING AREAS


CITY           SKY/WX    TMP DP  RH WIND       PRES   REMARKS
LANCASTER      PTCLDY    88  45  22 W16       30.01R
PALMDALE       PTCLDY    88  43  20 SW15      30.03R

CITY           SKY/WX    TMP DP  RH WIND       PRES   REMARKS
29 PALMS       PTCLDY    96  41  15 NW10      29.99R HX  92
BARSTOW/DAGGET PTCLDY    99  42  14 W12       29.90S HX  94
BISHOP         MOCLDY    85  43  22 N5        30.11R
CHINA LAKE     MOCLDY    96  43  16 W12       29.94R HX  92
EDWARDS AFB    CLOUDY    91  44  19 W15       29.97R
MOJAVE         FAIR      86  45  23 W26       30.01S
NEEDLES        CLEAR    104  47  14 W16       29.81R HX 100
VICTORVILLE    PTCLDY    90  43  19 W21G28    30.03R

$$

CAZ039-040-300400-
VENTURA AND SANTA BARBARA COUNTY COAST


CITY           SKY/WX    TMP DP  RH WIND       PRES   REMARKS
CAMARILLO      MOCLDY    71  61  70 W5        29.94S
NWS OXNARD       N/A     69  61  76 W3        29.94S
OXNARD AIRPORT CLOUDY    67  61  81 NW7       29.94S
*POINT MUGU    MOCLDY    71  61  70 W6        29.95R
SBA APT/GOLETA MOCLDY    69  61  75 CALM      29.92S
*SANTA BARBARA   N/A     71  60  68 CALM      30.01R
*VENTURA         N/A     69  61  74 SW3       29.99R

$$

CAZ044-045-300400-
VENTURA COUNTY VALLEYS


CITY           SKY/WX    TMP DP  RH WIND       PRES   REMARKS
*SIMI VALLEY     N/A     76  57  51 CALM      29.90S
*OJAI            N/A     81  59  45 CALM      29.87R
*FILLMORE        N/A     77  60  56 CALM      29.85S

$$

CAZ053-300400-
VENTURA COUNTY MOUNTAINS


CITY           SKY/WX    TMP DP  RH WIND       PRES   REMARKS
*LOCKWOOD VLY    N/A     75  41  29 MISG        N/A
*ROSE VALLEY     N/A     82  55  39 MISG        N/A

$$

CAZ034-035-036-300400-
CENTRAL COAST AND SANTA YNEZ VALLEY


CITY           SKY/WX    TMP DP  RH WIND       PRES   REMARKS
SAN LUIS OBISP PTCLDY    68  59  73 NW12      29.98R
SANTA MARIA    CLOUDY    68  59  73 NW7       30.01R

CITY           SKY/WX    TMP DP  RH WIND       PRES   REMARKS
*CAL POLY SLO    N/A     72  61  68 SW8         N/A
*LOMPOC          N/A     64  57  77 MISG      30.01R
*PISMO BEACH     N/A     66  61  85 E2        30.00R

$$

CAZ037-038-051-300400-
SAN LUIS OBISPO COUNTY INTERIOR AND CUYAMA VALLEY


CITY           SKY/WX    TMP DP  RH WIND       PRES   REMARKS
*CUYAMA          N/A     86  47  25 W12       29.89R
PASO ROBLES    PTCLDY    89  47  23 NW16      29.96R

$$

CAZ032-033-061-300400-
SOUTHERN DESERTS


CITY           SKY/WX    TMP DP  RH WIND       PRES   REMARKS
BLYTHE           N/A    N/A N/A N/A MISG      29.76R
IMPERIAL       PTCLDY   104  52  17 W13       29.74R HX 101
PALM SPRINGS   CLEAR    103  46  14 NW17      29.81R HX  99
THERMAL        CLEAR    105  46  13 NW13G22   29.73R HX 101

$$

ELSEWHERE ACROSS THE WESTERN UNITED STATES AND MEXICO


CITY           SKY/WX    TMP DP  RH WIND       PRES   REMARKS
DENVER, CO     RAIN      61  59  93 S8        30.26R FOG
GRAND CANYON,  PTCLDY    74  49  41 W5        30.28R
HONOLULU, HI   MOSUNNY   86  63  45 NE13G21   29.99S
KAHULUI, MAUI  MOSUNNY   84  68  58 NE23      29.99S
LAKE TAHOE, CA PTCLDY    67  56  67 S5        30.33F
LAS VEGAS, NV  PTCLDY    96  52  22 S6        29.88R HX  93
MAMMOTH LAKES, FAIR      64  52  63 W8        30.38S
MEXICO CITY, M MOCLDY    66  52  59 N6        30.37R
PHOENIX, AZ    MOCLDY   105  50  15 W12       29.80S HX 102
PORTLAND, OR   PTCLDY    84  59  42 W12       30.02R
RENO, NV       MOCLDY    83  45  26 S15       30.15S
SALT LAKE CITY MOCLDY    71  62  73 N6        30.13R
SAN DIEGO, CA  PTCLDY    74  66  76 NW7       29.98R
SAN FRANCISCO, PTCLDY    63  57  81 NW21      29.99R
SAN JOSE, CA   PTCLDY    73  57  57 W9        29.97S
SEATTLE, WA    PTCLDY    80  52  37 N10       30.08R
TIJUANA, MEX   PTCLDY    73  61  64 W9        30.00R

$$

STATION/POSITION TIME  TEMP    WIND        PRES    VSBY  WAVE
                       AIR SEA DIR/SP/G                  HT/PER
                 (UTC) (F)     (DEG/KT/KT) (MB)    (MI)  (FT/S)
POINT ARGUELLO B NOT AVBL
WEST SANTA BARBA 0300   63 61  300/ 19/ 23 1013.8F         4/ 4
POINT CONCEPTION NOT AVBL
EAST SANTA BARBA 0200   65     280/ 10     1013.6R
SANTA MONICA BAY 0300   68 67  270/  8/ 10 1013.9R         3/ 5



USA.gov is the U.S. government's official web portal to all federal, state and local government web resources and services.